Location: Albany
(35.0170°S, 117.8920°E)
Time: 22:39:33
(UTC+08:00)

Vanguard 1 - All Passes

Search period start: 25 January 2021 00:00
Search period end: 04 February 2021 00:00
Orbit: 648 x 3834 km, 34.3° (Epoch: 24 January)

Date Brightness Start Highest point End Pass type
(mag) Time Alt. Az. Time Alt. Az. Time Alt. Az.
25 Jan - 02:01:52 10° WNW 02:07:20 65° NNE 02:11:43 10° E visible
25 Jan - 04:22:45 10° W 04:27:11 77° N 04:32:24 10° ENE visible
25 Jan - 06:42:40 10° W 06:47:14 34° NNW 06:53:57 10° NE daylight
25 Jan - 09:06:05 10° NW 09:08:29 11° NNW 09:11:13 10° N daylight
25 Jan - 21:43:40 10° N 21:46:47 12° NNE 21:49:27 10° NE visible
26 Jan - 00:01:11 10° NW 00:08:06 34° NNE 00:12:45 10° E night (unlit)
26 Jan - 02:22:52 10° WNW 02:28:11 77° N 02:32:37 10° E visible
26 Jan - 04:43:39 10° W 04:48:02 65° NNW 04:53:23 10° ENE visible
26 Jan - 07:03:53 10° WNW 07:08:10 25° NNW 07:14:13 10° NNE daylight
26 Jan - 22:01:34 10° NNW 22:07:57 18° NNE 22:12:38 10° ENE visible
27 Jan - 00:21:49 10° NW 00:29:02 46° NNE 00:33:45 10° E night (unlit)
27 Jan - 02:43:54 10° W 02:49:03 83° N 02:53:31 10° E visible
27 Jan - 05:04:34 10° W 05:08:52 51° NNW 05:14:16 10° ENE daylight
27 Jan - 07:25:31 10° WNW 07:29:10 17° NNW 07:33:54 10° NNE daylight
27 Jan - 22:20:59 10° NNW 22:29:06 25° NNE 22:34:27 10° ENE visible
28 Jan - 00:42:44 10° WNW 00:49:55 59° NNE 00:54:39 10° E night (unlit)
28 Jan - 03:04:57 10° W 03:09:56 82° N 03:14:26 10° E visible
28 Jan - 05:25:33 10° W 05:29:42 38° NNW 05:34:57 10° NE daylight
28 Jan - 07:48:28 10° NW 07:50:12 11° NNW 07:52:07 10° N daylight
28 Jan - 20:23:58 10° N 20:27:57 12° NNE 20:31:21 10° NE visible
28 Jan - 22:41:05 10° NW 22:50:10 33° NNE 22:55:47 10° E visible
29 Jan - 01:03:48 10° WNW 01:10:48 71° N 01:15:28 10° E visible
29 Jan - 03:25:58 10° W 03:30:47 74° N 03:35:19 10° ENE visible
29 Jan - 05:46:42 10° W 05:50:32 27° NNW 05:55:22 10° NE daylight
29 Jan - 20:41:13 10° N 20:49:15 18° NNE 20:55:05 10° ENE visible
29 Jan - 23:01:37 10° NW 23:11:12 43° NNE 23:16:51 10° E visible
30 Jan - 01:24:58 10° W 01:31:42 80° N 01:36:18 10° E visible
30 Jan - 03:46:59 10° W 03:51:37 61° NNW 03:56:10 10° ENE visible
30 Jan - 06:08:10 10° WNW 06:11:24 18° NNW 06:15:18 10° NNE daylight
30 Jan - 21:00:15 10° NNW 21:10:30 25° NNE 21:17:11 10° ENE visible
30 Jan - 23:22:29 10° WNW 23:32:10 55° NNE 23:37:47 10° E visible
31 Jan - 01:46:11 10° W 01:52:36 84° N 01:57:09 10° E visible
31 Jan - 04:07:59 10° W 04:12:25 46° NNW 04:16:54 10° NE visible
31 Jan - 06:30:37 10° NW 06:32:17 11° NNW 06:34:05 10° N daylight
31 Jan - 19:04:32 10° NNE 19:08:31 11° NNE 19:12:01 10° NE daylight
31 Jan - 21:20:05 10° NNW 21:31:41 33° NNE 21:38:41 10° E visible
31 Jan - 23:43:35 10° WNW 23:53:07 66° NNE 23:58:38 10° E visible
01 Feb - 02:07:22 10° W 02:13:30 82° N 02:17:59 10° E visible
01 Feb - 04:29:06 10° W 04:33:10 32° NNW 04:37:25 10° NE visible
01 Feb - 19:20:33 10° N 19:29:55 17° NNE 19:36:54 10° ENE daylight
01 Feb - 21:40:26 10° NW 21:52:49 42° NNE 21:59:53 10° E visible
02 Feb - 00:04:51 10° WNW 00:14:05 76° N 00:19:27 10° E visible
02 Feb - 02:28:32 10° W 02:34:22 73° N 02:38:48 10° ENE visible
02 Feb - 04:50:26 10° WNW 04:53:55 22° NNW 04:57:36 10° NNE visible
02 Feb - 19:39:02 10° NNW 19:51:15 24° NNE 19:59:28 10° ENE visible
02 Feb - 22:01:11 10° NW 22:13:54 52° NNE 22:20:54 10° E visible
03 Feb - 00:26:12 10° W 00:35:01 83° N 00:40:15 10° E visible
03 Feb - 02:49:40 10° W 02:55:12 59° NNW 02:59:33 10° ENE visible
03 Feb - 05:12:18 10° WNW 05:14:38 14° NNW 05:17:06 10° N daylight
03 Feb - 19:58:28 10° NNW 20:12:31 32° NNE 20:21:14 10° E visible
03 Feb - 22:22:14 10° WNW 22:34:57 62° NNE 22:41:47 10° E visible
